This demonstration page uses our WeatherBlox Daily Observations layout. Learn more.

Left ArrowRight Arrow

Hourly Observations for November 20, 2021

Temp ( °F °C ) Dew Point ( °F °C ) Humidity (%) Winds ( mph kmh ) Pressure ( in mb ) Visibility ( mi km ) Precip ( " mm )
12:53 am 00:53 Clear 36 2.2 30 -1.1 79 79 Calm 30.41 1030 10 16 0.00 0.00
1:53 am 01:53 Clear 46 7.8 25 -3.9 44 44 E 8 13 30.40 1030 10 16 0.00 0.00
2:53 am 02:53 Clear 44 6.7 26 -3.3 49 49 ENE 8 13 30.40 1030 10 16 0.00 0.00
3:53 am 03:53 Clear 40 4.4 27 -2.8 60 60 ENE 3 6 30.41 1030 10 16 0.00 0.00
4:53 am 04:53 Clear 41 5 25 -3.9 53 53 E 7 11 30.41 1030 10 16 0.00 0.00
5:53 am 05:53 Clear 37 2.8 25 -3.9 62 62 NE 6 9 30.42 1030 10 16 0.00 0.00
6:04 am 06:04 Clear 38 3.3 25 -3.9 60 60 ENE 7 11 30.45 1031 10 16 0.00 0.00
6:05 am 06:05 Clear 38 3.3 25 -3.9 60 60 ENE 7 11 30.45 1031 10 16 0.00 0.00
6:53 am 06:53 Clear 38 3.3 25 -3.9 60 60 NE 9 15 30.44 1031 10 16 0.00 0.00
7:53 am 07:53 Sunny 38 3.3 25 -3.9 60 60 ENE 10 17 30.46 1032 10 16 0.00 0.00
8:53 am 08:53 Sunny 43 6.1 25 -3.9 49 49 E 10 17 30.48 1032 10 16 0.00 0.00
9:53 am 09:53 Sunny 46 7.8 24 -4.4 42 42 E 13 20 30.48 1032 10 16 0.00 0.00
10:53 am 10:53 Sunny 50 10 24 -4.4 36 36 ENE 12 19 30.47 1032 10 16 0.00 0.00
11:53 am 11:53 Sunny 52 11.1 27 -2.8 38 38 ENE 10 17 30.45 1031 10 16 0.00 0.00
12:53 pm 12:53 Sunny 54 12.2 29 -1.7 38 38 E 12 19 30.41 1030 10 16 0.00 0.00
1:53 pm 13:53 Sunny 56 13.3 30 -1.1 37 37 E 10 17 30.37 1028 10 16 0.00 0.00
2:53 pm 14:53 Sunny 58 14.4 32 0 38 38 E 7 11 30.34 1028 10 16 0.00 0.00
3:53 pm 15:53 Sunny 59 15 34 1.1 39 39 VRB 7 11 30.33 1027 10 16 0.00 0.00
4:53 pm 16:53 Sunny 57 13.9 33 0.6 41 41 E 8 13 30.33 1027 10 16 0.00 0.00
5:53 pm 17:53 Clear 54 12.2 34 1.1 47 47 E 6 9 30.35 1028 10 16 0.00 0.00
6:53 pm 18:53 Clear 52 11.1 34 1.1 50 50 E 5 7 30.36 1028 10 16 0.00 0.00
7:53 pm 19:53 Mostly Clear 47 8.3 34 1.1 61 61 Calm 30.36 1028 10 16 0.00 0.00
8:13 pm 20:13 Mostly Cloudy 49 9.4 34 1.1 56 56 E 3 6 30.36 1028 10 16 0.00 0.00
8:53 pm 20:53 Cloudy 49 9.4 33 0.6 55 55 ENE 6 9 30.36 1028 10 16 0.00 0.00
9:53 pm 21:53 Cloudy 49 9.4 32 0 52 52 ENE 8 13 30.37 1028 10 16 0.00 0.00
10:08 pm 22:08 Mostly Cloudy 48 8.9 31 -0.6 52 52 ENE 8 13 30.38 1029 10 16 0.00 0.00
10:40 pm 22:40 Mostly Cloudy 48 8.9 31 -0.6 52 52 NE 7 11 30.38 1029 10 16 0.00 0.00
10:53 pm 22:53 Cloudy 49 9.4 30 -1.1 48 48 ENE 6 9 30.37 1028 10 16 0.00 0.00
11:53 pm 23:53 Cloudy 48 8.9 30 -1.1 50 50 NNE 3 6 30.35 1028 10 16 0.00 0.00

Powered by AerisWeather